Hourly Data Report for October 03, 2017

All times are specified in Local Standard Time (LST). Add 1 hour to adjust for Daylight Saving Time where and when it is observed.

SAINT JOHN A
NEW BRUNSWICK

45°18'58.000" N
65°53'24.000" W
108.80 m
8104901
71609
YSJ

Download Data

Hourly Data (October 2017)
Hourly Data Report for October 3, 2017
Temp Definition
°C
Dew Point Temp Definition
°C
Rel Hum Definition
%
Wind Dir Definition
10's deg

Wind Spd Definition
km/h
Visibility Definition
km
Stn Press Definition
kPa
Hmdx Definition


Wind Chill Definition


Weather Definition


TIME
00:00 Legend Double Dagger -0.9 -2.1 92 32 3 24.1 102.21   -2 LegendNANA
01:00 Legend Double Dagger -0.8 -1.4 96 36 1 24.1 102.24   -1 LegendNANA
02:00 Legend Double Dagger -2.0 -2.2 99 0 1 24.1 102.28   -2 Clear
03:00 Legend Double Dagger -0.7 -0.8 99 7 4 24.1 102.26   -2 LegendNANA
04:00 Legend Double Dagger -1.7 -1.9 98   0 1.2 102.30     Fog
05:00 Legend Double Dagger -1.1 -1.2 99 0 1 0.4 102.35   -1 Freezing Fog
06:00 Legend Double Dagger -0.3 -0.4 100 9 3 0.2 102.42   -1 Freezing Fog
07:00 Legend Double Dagger 0.1 0.0 100 36 2 0.4 102.43     Fog
08:00 Legend Double Dagger 3.2 3.2 100 36 1 0.0 102.47     Fog
09:00 Legend Double Dagger 7.9 5.8 86 33 5 24.1 102.51     LegendNANA
10:00 Legend Double Dagger 9.8 3.0 62 28 5 24.1 102.46     LegendNANA
11:00 Legend Double Dagger 12.1 2.4 51 28 12 24.1 102.47     Mainly Clear
12:00 Legend Double Dagger 14.2 3.3 47 24 7 24.1 102.38     LegendNANA
13:00 Legend Double Dagger 13.1 4.7 57 25 6 24.1 102.35     LegendNANA
14:00 Legend Double Dagger 12.2 5.0 61 22 19 24.1 102.26     Cloudy
15:00 Legend Double Dagger 11.7 6.0 68 21 17 24.1 102.17     LegendNANA
16:00 Legend Double Dagger 11.6 6.4 70 21 24 24.1 102.08     LegendNANA
17:00 Legend Double Dagger 11.5 6.8 73 23 24 24.1 102.01     Cloudy
18:00 Legend Double Dagger 10.7 6.7 76 22 17 24.1 101.94     LegendNANA
19:00 Legend Double Dagger 10.5 7.4 81 22 10 24.1 101.93     LegendNANA
20:00 Legend Double Dagger 10.8 7.5 80 21 24 24.1 101.85     Mostly Cloudy
21:00 Legend Double Dagger 10.8 8.0 83 23 14 24.1 101.82     LegendNANA
22:00 Legend Double Dagger 9.8 7.7 87 22 14 24.1 101.77     LegendNANA
23:00 Legend Double Dagger 9.3 7.5 89 22 12 24.1 101.71     Mainly Clear

Notes on Data Quality.

Legend

  • E = Estimated
  • M = Missing
  • NA = Not Available
  • ‡ = Partner data that is not subject to review by the National Climate Archives
Date modified: